Location: Poprad
(49.0500°N, 20.3000°E)
Time: 07:55:55
(UTC+02:00)

ISS - Pass Details

Date: 26 March 2019
Orbit: 408 x 410 km, 51.6° (Epoch: 24 April)

Event Time Altitude Azimuth Distance (km) Brightness Sun altitude
Rises 19:23:40 0° 256° (WSW) 2,331 1.0 -14.1°
Reaches altitude 10° 19:25:45 10° 258° (WSW) 1,471 -0.1 -14.5°
Maximum altitude 19:29:03 73° 344° (NNW) 431 -3.7 -15.0°
Enters shadow 19:30:49 25° 65° (ENE) 871 -2.5 -15.2°
